Location: Kennington
(51.1500°N, 0.8833°E)
Time: 11:34:38
(UTC+00:00)

CZ-4B R/B - Pass Details

Date: 21 September 2020
Orbit: 390 x 462 km, 97.6° (Epoch: 30 October)

Event Time Altitude Azimuth Distance (km) Brightness Sun altitude
Rises 04:51:36 0° 185° (S) 2,327 4.8 -8.6°
Reaches altitude 10° 04:53:40 10° 196° (SSW) 1,483 3.8 -8.3°
Maximum altitude 04:56:35 33° 263° (W) 733 1.9 -7.8°
Drops below altitude 10° 04:59:35 10° 329° (NNW) 1,534 3.9 -7.4°
Sets 05:01:46 0° 339° (NNW) 2,422 5.0 -7.0°
